,,,PA_Meas_PMT16A,,PR_Meas_QMR101_102,,RH_Meas_QMH101,,SR_Meas_QMS101,,TA_Meas_QMH101,,GenWind,,GenWind,
date,time,status,PA,status,PR,status,RH,status,SR,status,TA,status,DirAvg,status,SpdAvg,
2009-12-26, 00:00:04,VALID,1009.49,VALID,0,VALID,42.1628,VALID,0.105969,VALID,24.2183,VALID,167,VALID,0,
2009-12-26, 00:01:04,VALID,1009.49,VALID,0,VALID,42.1399,VALID,0,VALID,24.2202,VALID,167,VALID,0,
2009-12-26, 00:02:04,VALID,1009.47,VALID,0,VALID,42.1552,VALID,0,VALID,24.2202,VALID,163,VALID,0,
2009-12-26, 00:03:04,VALID,1009.47,VALID,0,VALID,42.1094,VALID,0,VALID,24.2202,VALID,159,VALID,0,
2009-12-26, 00:04:04,VALID,1009.48,VALID,0,VALID,42.1628,VALID,0,VALID,24.1988,VALID,159,VALID,0,
2009-12-26, 00:05:04,VALID,1009.44,VALID,0,VALID,42.1628,VALID,0,VALID,24.2202,VALID,153,VALID,0,
2009-12-26, 00:06:04,VALID,1009.42,VALID,0,VALID,42.1475,VALID,0,VALID,24.2183,VALID,153,VALID,0,
2009-12-26, 00:07:04,VALID,1009.41,VALID,0,VALID,42.1628,VALID,0,VALID,24.2202,VALID,153,VALID,0,
2009-12-26, 00:08:04,VALID,1009.43,VALID,0,VALID,42.1704,VALID,0,VALID,24.2396,VALID,113,VALID,0.507031,
2009-12-26, 00:09:04,VALID,1009.45,VALID,0,VALID,42.1704,VALID,0,VALID,24.2396,VALID,106,VALID,0.00195313,
2009-12-26, 00:10:04,VALID,1009.43,VALID,0,VALID,42.1323,VALID,0,VALID,24.2396,VALID,95,VALID,0,
2009-12-26, 00:11:04,VALID,1009.42,VALID,0,VALID,42.1704,VALID,0,VALID,24.2396,VALID,68,VALID,0.358203,
2009-12-26, 00:12:04,VALID,1009.4,VALID,0,VALID,42.1475,VALID,0,VALID,24.2202,VALID,61,VALID,0.502734,
2009-12-26, 00:13:04,VALID,1009.39,VALID,0,VALID,42.2009,VALID,0,VALID,24.1988,VALID,66,VALID,0.412109,
2009-12-26, 00:14:04,VALID,1009.36,VALID,0,VALID,42.2162,VALID,0,VALID,24.2396,VALID,66,VALID,0.375,
2009-12-26, 00:15:04,VALID,1009.37,VALID,0,VALID,42.2314,VALID,0,VALID,24.2396,VALID,66,VALID,0.09375,
2009-12-26, 00:16:04,VALID,1009.34,VALID,0,VALID,42.2162,VALID,0,VALID,24.2396,VALID,69,VALID,0.638672,
2009-12-26, 00:17:04,VALID,1009.33,VALID,0,VALID,42.2085,VALID,0,VALID,24.2202,VALID,81,VALID,0.753906,
2009-12-26, 00:18:04,VALID,1009.32,VALID,0,VALID,42.2314,VALID,0,VALID,24.2396,VALID,87,VALID,0.615234,
2009-12-26, 00:19:04,VALID,1009.31,VALID,0,VALID,42.2467,VALID,0,VALID,24.2396,VALID,76,VALID,0.634766,
2009-12-26, 00:20:04,VALID,1009.3,VALID,0,VALID,42.2696,VALID,0,VALID,24.2396,VALID,75,VALID,0.507422,
2009-12-26, 00:21:04,VALID,1009.26,VALID,0,VALID,42.3001,VALID,0,VALID,24.2396,VALID,75,VALID,0.562891,
2009-12-26, 00:22:04,VALID,1009.27,VALID,0,VALID,42.3077,VALID,0,VALID,24.2202,VALID,78,VALID,1.1625,
2009-12-26, 00:23:04,VALID,1009.22,VALID,0,VALID,42.3077,VALID,0,VALID,24.2396,VALID,82,VALID,0.819141,
2009-12-26, 00:24:04,VALID,1009.24,VALID,0,VALID,42.3229,VALID,0,VALID,24.1988,VALID,78,VALID,1.04297,
2009-12-26, 00:25:04,VALID,1009.23,VALID,0,VALID,42.3458,VALID,0,VALID,24.2202,VALID,75,VALID,0.752344,
2009-12-26, 00:26:04,VALID,1009.23,VALID,0,VALID,42.3153,VALID,0,VALID,24.2202,VALID,80,VALID,0.988281,
2009-12-26, 00:27:04,VALID,1009.23,VALID,0,VALID,42.3382,VALID,0,VALID,24.1988,VALID,83,VALID,0.900781,
2009-12-26, 00:28:04,VALID,1009.21,VALID,0,VALID,42.3306,VALID,0,VALID,24.2007,VALID,78,VALID,0.894922,
2009-12-26, 00:29:04,VALID,1009.21,VALID,0,VALID,42.3306,VALID,0,VALID,24.2007,VALID,84,VALID,0.567969,
2009-12-26, 00:30:04,VALID,1009.21,VALID,0,VALID,42.3153,VALID,0,VALID,24.1793,VALID,79,VALID,0.786719,
2009-12-26, 00:31:04,VALID,1009.19,VALID,0,VALID,42.3611,VALID,0,VALID,24.1793,VALID,84,VALID,0.648828,
2009-12-26, 00:32:04,VALID,1009.19,VALID,0,VALID,42.3839,VALID,0,VALID,24.1812,VALID,71,VALID,0.683203,
2009-12-26, 00:33:04,VALID,1009.16,VALID,0,VALID,42.4297,VALID,0,VALID,24.1599,VALID,104,VALID,0.499219,
2009-12-26, 00:34:04,VALID,1009.14,VALID,0,VALID,42.4144,VALID,0,VALID,24.1812,VALID,59,VALID,0.799609,
2009-12-26, 00:35:04,VALID,1009.12,VALID,0,VALID,42.4449,VALID,0.105969,VALID,24.1599,VALID,101,VALID,0.624219,
2009-12-26, 00:36:04,VALID,1009.14,VALID,0,VALID,42.4526,VALID,0,VALID,24.1599,VALID,77,VALID,0.432813,
2009-12-26, 00:37:04,VALID,1009.12,VALID,0,VALID,42.4373,VALID,0,VALID,24.1812,VALID,69,VALID,0.889063,
2009-12-26, 00:38:04,VALID,1009.13,VALID,0,VALID,42.4221,VALID,0,VALID,24.1812,VALID,75,VALID,0.751562,
2009-12-26, 00:39:04,VALID,1009.11,VALID,0,VALID,42.4754,VALID,0,VALID,24.1812,VALID,65,VALID,1.06211,
2009-12-26, 00:40:04,VALID,1009.11,VALID,0,VALID,42.4754,VALID,0.105969,VALID,24.1812,VALID,64,VALID,0.777344,
2009-12-26, 00:41:04,VALID,1009.11,VALID,0,VALID,42.4602,VALID,0.105969,VALID,24.1599,VALID,74,VALID,0.925,
2009-12-26, 00:42:04,VALID,1009.09,VALID,0,VALID,42.4449,VALID,0,VALID,24.1599,VALID,78,VALID,0.913672,
2009-12-26, 00:43:04,VALID,1009.09,VALID,0,VALID,42.4526,VALID,0,VALID,24.1793,VALID,68,VALID,0.848047,
2009-12-26, 00:44:04,VALID,1009.05,VALID,0,VALID,42.4297,VALID,0.105969,VALID,24.1793,VALID,94,VALID,1.10078,
2009-12-26, 00:45:04,VALID,1009.04,VALID,0,VALID,42.4907,VALID,0,VALID,24.2007,VALID,88,VALID,0.754687,
2009-12-26, 00:46:04,VALID,1009.02,VALID,0,VALID,42.4907,VALID,0,VALID,24.1812,VALID,94,VALID,1.07305,
2009-12-26, 00:47:04,VALID,1009.04,VALID,0,VALID,42.5212,VALID,0,VALID,24.1812,VALID,82,VALID,1.05195,
2009-12-26, 00:48:04,VALID,1009.02,VALID,0,VALID,42.4983,VALID,0,VALID,24.1812,VALID,85,VALID,0.906641,
2009-12-26, 00:49:04,VALID,1008.99,VALID,0,VALID,42.5365,VALID,0,VALID,24.1599,VALID,69,VALID,0.9125,
2009-12-26, 00:50:04,VALID,1008.95,VALID,0,VALID,42.5746,VALID,0,VALID,24.1812,VALID,88,VALID,0.978125,
2009-12-26, 00:51:04,VALID,1008.95,VALID,0,VALID,42.5212,VALID,0,VALID,24.1812,VALID,93,VALID,1.28906,
2009-12-26, 00:52:04,VALID,1008.94,VALID,0,VALID,42.5212,VALID,0,VALID,24.1599,VALID,78,VALID,1.20703,
2009-12-26, 00:53:04,VALID,1008.91,VALID,0,VALID,42.5517,VALID,0,VALID,24.1599,VALID,79,VALID,1.16562,
2009-12-26, 00:54:04,VALID,1008.88,VALID,0,VALID,42.567,VALID,0.105969,VALID,24.1812,VALID,86,VALID,1.14648,
2009-12-26, 00:55:04,VALID,1008.86,VALID,0,VALID,42.5441,VALID,0,VALID,24.1599,VALID,92,VALID,0.955469,
2009-12-26, 00:56:04,VALID,1008.82,VALID,0,VALID,42.5746,VALID,0.105969,VALID,24.1404,VALID,97,VALID,1.47578,
2009-12-26, 00:57:04,VALID,1008.81,VALID,0,VALID,42.5975,VALID,0,VALID,24.1617,VALID,96,VALID,0.949219,
2009-12-26, 00:58:04,VALID,1008.78,VALID,0,VALID,42.5365,VALID,0,VALID,24.183,VALID,69,VALID,0.102734,
2009-12-26, 00:59:04,VALID,1008.75,VALID,0,VALID,42.6051,VALID,0,VALID,24.1617,VALID,68,VALID,0.741016,
2009-12-26, 01:00:04,VALID,1008.75,VALID,0,VALID,42.6127,VALID,0,VALID,24.1422,VALID,71,VALID,1.06953,
2009-12-26, 01:01:04,VALID,1008.75,VALID,0,VALID,42.6356,VALID,0,VALID,24.1635,VALID,85,VALID,1.12188,
2009-12-26, 01:02:04,VALID,1008.73,VALID,0,VALID,42.628,VALID,0,VALID,24.1422,VALID,104,VALID,0.599219,
2009-12-26, 01:03:04,VALID,1008.71,VALID,0,VALID,42.628,VALID,0,VALID,24.1422,VALID,91,VALID,1.2043,
2009-12-26, 01:04:04,VALID,1008.71,VALID,0,VALID,42.6432,VALID,0,VALID,24.1422,VALID,90,VALID,1.14141,
2009-12-26, 01:05:04,VALID,1008.69,VALID,0,VALID,42.6432,VALID,0,VALID,24.1422,VALID,68,VALID,0.969141,
2009-12-26, 01:06:04,VALID,1008.69,VALID,0,VALID,42.6127,VALID,0,VALID,24.1227,VALID,56,VALID,0.392188,
2009-12-26, 01:07:04,VALID,1008.69,VALID,0,VALID,42.6356,VALID,0,VALID,24.1422,VALID,86,VALID,0.926562,
2009-12-26, 01:08:04,VALID,1008.66,VALID,0,VALID,42.6432,VALID,0,VALID,24.1227,VALID,63,VALID,0.909375,
2009-12-26, 01:09:04,VALID,1008.66,VALID,0,VALID,42.6432,VALID,0,VALID,24.1635,VALID,72,VALID,0.600781,
2009-12-26, 01:10:04,VALID,1008.63,VALID,0,VALID,42.6127,VALID,0,VALID,24.144,VALID,82,VALID,0.675391,
2009-12-26, 01:11:04,VALID,1008.62,VALID,0,VALID,42.6508,VALID,0,VALID,24.1032,VALID,89,VALID,0.508203,
2009-12-26, 01:12:04,VALID,1008.62,VALID,0,VALID,42.6432,VALID,0.105969,VALID,24.1422,VALID,108,VALID,0.954687,
2009-12-26, 01:13:04,VALID,1008.61,VALID,0,VALID,42.6432,VALID,0,VALID,24.1422,VALID,60,VALID,0.729297,
2009-12-26, 01:14:04,VALID,1008.61,VALID,0,VALID,42.7042,VALID,0.105969,VALID,24.1227,VALID,69,VALID,0.0121094,
2009-12-26, 01:15:04,VALID,1008.58,VALID,0,VALID,42.6585,VALID,0.105969,VALID,24.1209,VALID,109,VALID,0,
2009-12-26, 01:16:04,VALID,1008.58,VALID,0,VALID,42.6203,VALID,0.105969,VALID,24.1209,VALID,85,VALID,0,
2009-12-26, 01:17:04,VALID,1008.55,VALID,0,VALID,42.6508,VALID,0,VALID,24.1014,VALID,108,VALID,0.730078,
2009-12-26, 01:18:04,VALID,1008.56,VALID,0,VALID,42.6737,VALID,0.105969,VALID,24.1422,VALID,92,VALID,0.0554687,
2009-12-26, 01:19:04,VALID,1008.54,VALID,0,VALID,42.6737,VALID,0,VALID,24.1209,VALID,75,VALID,0,
2009-12-26, 01:20:04,VALID,1008.54,VALID,0,VALID,42.689,VALID,0,VALID,24.1422,VALID,119,VALID,0,
2009-12-26, 01:21:04,VALID,1008.53,VALID,0,VALID,42.6813,VALID,0,VALID,24.1209,VALID,109,VALID,0,
2009-12-26, 01:22:04,VALID,1008.5,VALID,0,VALID,42.7042,VALID,0,VALID,24.1209,VALID,116,VALID,0,
2009-12-26, 01:23:04,VALID,1008.51,VALID,0,VALID,42.6585,VALID,0,VALID,24.1404,VALID,116,VALID,0,
2009-12-26, 01:24:04,VALID,1008.47,VALID,0,VALID,42.6661,VALID,0,VALID,24.1812,VALID,116,VALID,0,
2009-12-26, 01:25:04,VALID,1008.43,VALID,0,VALID,42.689,VALID,0,VALID,24.1617,VALID,116,VALID,0,
2009-12-26, 01:26:04,VALID,1008.42,VALID,0,VALID,42.689,VALID,0,VALID,24.1404,VALID,116,VALID,0,
2009-12-26, 01:27:04,VALID,1008.4,VALID,0,VALID,42.7271,VALID,0.105969,VALID,24.1404,VALID,116,VALID,0,
2009-12-26, 01:28:04,VALID,1008.36,VALID,0,VALID,42.7042,VALID,0,VALID,24.1209,VALID,116,VALID,0,
2009-12-26, 01:29:04,VALID,1008.37,VALID,0,VALID,42.7271,VALID,0.105969,VALID,24.1227,VALID,124,VALID,0,
2009-12-26, 01:30:04,VALID,1008.33,VALID,0,VALID,42.7195,VALID,0,VALID,24.1014,VALID,139,VALID,0,
2009-12-26, 01:31:04,VALID,1008.34,VALID,0,VALID,42.7347,VALID,0.105969,VALID,24.1014,VALID,149,VALID,0,
2009-12-26, 01:32:04,VALID,1008.31,VALID,0,VALID,42.7423,VALID,0.105969,VALID,24.1014,VALID,150,VALID,0,
2009-12-26, 01:33:04,VALID,1008.27,VALID,0,VALID,42.7729,VALID,0.105969,VALID,24.0819,VALID,150,VALID,0,
2009-12-26, 01:34:04,VALID,1008.28,VALID,0,VALID,42.7652,VALID,0,VALID,24.0624,VALID,150,VALID,0,
2009-12-26, 01:35:04,VALID,1008.25,VALID,0,VALID,42.7881,VALID,0,VALID,24.0643,VALID,152,VALID,0,
2009-12-26, 01:36:04,VALID,1008.27,VALID,0,VALID,42.811,VALID,0,VALID,24.0429,VALID,152,VALID,0,
2009-12-26, 01:37:04,VALID,1008.2,VALID,0,VALID,42.8186,VALID,0,VALID,24.0643,VALID,152,VALID,0,
2009-12-26, 01:38:04,VALID,1008.22,VALID,0,VALID,42.8262,VALID,0.105969,VALID,24.0624,VALID,152,VALID,0,
2009-12-26, 01:39:04,VALID,1008.22,VALID,0,VALID,42.8491,VALID,0,VALID,24.0643,VALID,152,VALID,0,
2009-12-26, 01:40:04,VALID,1008.17,VALID,0,VALID,42.8415,VALID,0,VALID,24.0235,VALID,162,VALID,0,
2009-12-26, 01:41:04,VALID,1008.17,VALID,0,VALID,42.8415,VALID,0,VALID,24.0448,VALID,157,VALID,0,
2009-12-26, 01:42:04,VALID,1008.14,VALID,0,VALID,42.8644,VALID,0,VALID,24.0235,VALID,156,VALID,0,
2009-12-26, 01:43:04,VALID,1008.14,VALID,0,VALID,42.8949,VALID,0,VALID,24.0235,VALID,157,VALID,0,
2009-12-26, 01:44:04,VALID,1008.12,VALID,0,VALID,42.8949,VALID,0,VALID,24.0448,VALID,121,VALID,0,
2009-12-26, 01:45:04,VALID,1008.09,VALID,0,VALID,42.8949,VALID,0.105969,VALID,24.004,VALID,121,VALID,0,
2009-12-26, 01:46:04,VALID,1008.08,VALID,0,VALID,42.9025,VALID,0,VALID,24.0235,VALID,121,VALID,0,
2009-12-26, 01:47:04,VALID,1008.05,VALID,0,VALID,42.9025,VALID,0,VALID,24.0448,VALID,121,VALID,0,
2009-12-26, 01:48:04,VALID,1008.02,VALID,0,VALID,42.8949,VALID,0.105969,VALID,24.0448,VALID,121,VALID,0,
2009-12-26, 01:49:04,VALID,1008.02,VALID,0,VALID,42.9177,VALID,0,VALID,24.0235,VALID,121,VALID,0,
2009-12-26, 01:50:04,VALID,1007.99,VALID,0,VALID,42.9482,VALID,0,VALID,24.0448,VALID,121,VALID,0,
2009-12-26, 01:51:04,VALID,1007.98,VALID,0,VALID,42.933,VALID,0,VALID,24.0448,VALID,121,VALID,0,
2009-12-26, 01:52:04,VALID,1007.96,VALID,0,VALID,42.9482,VALID,0.105969,VALID,24.0429,VALID,121,VALID,0,
2009-12-26, 01:53:04,VALID,1007.93,VALID,0,VALID,42.9406,VALID,0,VALID,24.0429,VALID,121,VALID,0,
2009-12-26, 01:54:04,VALID,1007.93,VALID,0,VALID,42.9101,VALID,0,VALID,24.0837,VALID,121,VALID,0,
2009-12-26, 01:55:04,VALID,1007.92,VALID,0,VALID,42.9177,VALID,0.105969,VALID,24.0624,VALID,121,VALID,0,
2009-12-26, 01:56:04,VALID,1007.9,VALID,0,VALID,42.933,VALID,0,VALID,24.0429,VALID,121,VALID,0,
2009-12-26, 01:57:04,VALID,1007.86,VALID,0,VALID,42.9711,VALID,0,VALID,24.0466,VALID,121,VALID,0,
2009-12-26, 01:58:04,VALID,1007.85,VALID,0,VALID,42.9635,VALID,0,VALID,24.0253,VALID,121,VALID,0,
2009-12-26, 01:59:04,VALID,1007.86,VALID,0,VALID,42.9635,VALID,0,VALID,24.0448,VALID,121,VALID,0,
2009-12-26, 02:00:04,VALID,1007.83,VALID,0,VALID,42.9711,VALID,0,VALID,24.0448,VALID,121,VALID,0,
2009-12-26, 02:01:04,VALID,1007.8,VALID,0,VALID,42.9787,VALID,0,VALID,24.0448,VALID,148,VALID,0,
2009-12-26, 02:02:04,VALID,1007.78,VALID,0,VALID,42.9864,VALID,0,VALID,24.0448,VALID,148,VALID,0,
2009-12-26, 02:03:04,VALID,1007.75,VALID,0,VALID,43.0245,VALID,0,VALID,24.0466,VALID,148,VALID,0,
2009-12-26, 02:04:04,VALID,1007.75,VALID,0,VALID,43.0169,VALID,0,VALID,24.0448,VALID,177,VALID,0,
2009-12-26, 02:05:04,VALID,1007.7,VALID,0,VALID,43.0245,VALID,0,VALID,24.0661,VALID,177,VALID,0,
2009-12-26, 02:06:04,VALID,1007.72,VALID,0,VALID,43.0626,VALID,0,VALID,24.0448,VALID,177,VALID,0,
2009-12-26, 02:07:04,VALID,1007.7,VALID,0,VALID,43.0474,VALID,0,VALID,24.0253,VALID,177,VALID,0,
2009-12-26, 02:08:04,VALID,1007.69,VALID,0,VALID,43.0626,VALID,0,VALID,24.0448,VALID,177,VALID,0,
2009-12-26, 02:09:04,VALID,1007.7,VALID,0,VALID,43.0779,VALID,0,VALID,24.0466,VALID,177,VALID,0,
2009-12-26, 02:10:04,VALID,1007.68,VALID,0,VALID,43.0855,VALID,0,VALID,24.0253,VALID,177,VALID,0,
2009-12-26, 02:11:04,VALID,1007.65,VALID,0,VALID,43.0779,VALID,0,VALID,24.0058,VALID,177,VALID,0,
2009-12-26, 02:12:04,VALID,1007.64,VALID,0,VALID,43.1313,VALID,0,VALID,24.0058,VALID,177,VALID,0,
2009-12-26, 02:13:04,VALID,1007.63,VALID,0,VALID,43.0855,VALID,0,VALID,24.0271,VALID,177,VALID,0,
2009-12-26, 02:14:04,VALID,1007.64,VALID,0,VALID,43.055,VALID,0,VALID,24.0466,VALID,188,VALID,0,
2009-12-26, 02:15:04,VALID,1007.59,VALID,0,VALID,43.0626,VALID,0,VALID,24.0466,VALID,198,VALID,0,
2009-12-26, 02:16:04,VALID,1007.61,VALID,0,VALID,43.0855,VALID,0,VALID,24.0448,VALID,198,VALID,0,
2009-12-26, 02:17:04,VALID,1007.6,VALID,0,VALID,43.1084,VALID,0,VALID,24.0466,VALID,198,VALID,0,
2009-12-26, 02:18:04,VALID,1007.55,VALID,0,VALID,43.1008,VALID,0,VALID,24.0661,VALID,198,VALID,0,
2009-12-26, 02:19:04,VALID,1007.57,VALID,0,VALID,43.1084,VALID,0,VALID,24.0253,VALID,198,VALID,0,
2009-12-26, 02:20:04,VALID,1007.55,VALID,0,VALID,43.1084,VALID,0,VALID,24.0448,VALID,198,VALID,0,
2009-12-26, 02:21:04,VALID,1007.56,VALID,0,VALID,43.0931,VALID,0,VALID,24.0253,VALID,198,VALID,0,
2009-12-26, 02:22:04,VALID,1007.53,VALID,0,VALID,43.0779,VALID,0,VALID,24.0661,VALID,198,VALID,0,
2009-12-26, 02:23:04,VALID,1007.5,VALID,0,VALID,43.1084,VALID,0,VALID,24.0448,VALID,198,VALID,0,
2009-12-26, 02:24:04,VALID,1007.47,VALID,0,VALID,43.1008,VALID,0,VALID,24.0448,VALID,198,VALID,0,
2009-12-26, 02:25:04,VALID,1007.49,VALID,0,VALID,43.0703,VALID,0,VALID,24.0856,VALID,198,VALID,0,
2009-12-26, 02:26:04,VALID,1007.46,VALID,0,VALID,43.0931,VALID,0,VALID,24.0856,VALID,198,VALID,0,
2009-12-26, 02:27:04,VALID,1007.44,VALID,0,VALID,43.0931,VALID,0,VALID,24.0837,VALID,199,VALID,0,
2009-12-26, 02:28:04,VALID,1007.44,VALID,0,VALID,43.1008,VALID,0.105969,VALID,24.0624,VALID,199,VALID,0,
2009-12-26, 02:29:04,VALID,1007.44,VALID,0,VALID,43.1008,VALID,0.105969,VALID,24.0837,VALID,199,VALID,0,
2009-12-26, 02:30:04,VALID,1007.46,VALID,0,VALID,43.0779,VALID,0,VALID,24.0837,VALID,199,VALID,0,
2009-12-26, 02:31:04,VALID,1007.43,VALID,0,VALID,43.1389,VALID,0,VALID,24.0429,VALID,199,VALID,0,
2009-12-26, 02:32:04,VALID,1007.41,VALID,0,VALID,43.1465,VALID,0,VALID,24.0643,VALID,199,VALID,0,
2009-12-26, 02:33:04,VALID,1007.43,VALID,0,VALID,43.1389,VALID,0,VALID,24.0429,VALID,199,VALID,0,
2009-12-26, 02:34:04,VALID,1007.41,VALID,0,VALID,43.1618,VALID,0,VALID,24.0429,VALID,199,VALID,0,
2009-12-26, 02:35:04,VALID,1007.42,VALID,0,VALID,43.1618,VALID,0,VALID,24.0448,VALID,199,VALID,0,
2009-12-26, 02:36:04,VALID,1007.41,VALID,0,VALID,43.1694,VALID,0,VALID,24.0235,VALID,199,VALID,0,
2009-12-26, 02:37:04,VALID,1007.4,VALID,0,VALID,43.1999,VALID,0,VALID,24.0448,VALID,199,VALID,0,
2009-12-26, 02:38:04,VALID,1007.41,VALID,0,VALID,43.238,VALID,0,VALID,24.0448,VALID,199,VALID,0,
2009-12-26, 02:39:04,VALID,1007.41,VALID,0,VALID,43.2533,VALID,0,VALID,24.0448,VALID,199,VALID,0,
2009-12-26, 02:40:04,VALID,1007.39,VALID,0,VALID,43.2685,VALID,0,VALID,24.0253,VALID,199,VALID,0,
2009-12-26, 02:41:04,VALID,1007.38,VALID,0,VALID,43.2838,VALID,0,VALID,24.0253,VALID,199,VALID,0,
2009-12-26, 02:42:04,VALID,1007.37,VALID,0,VALID,43.2914,VALID,0,VALID,24.0058,VALID,199,VALID,0,
2009-12-26, 02:43:04,VALID,1007.36,VALID,0,VALID,43.2761,VALID,0,VALID,24.0058,VALID,199,VALID,0,
2009-12-26, 02:44:04,VALID,1007.39,VALID,0,VALID,43.299,VALID,0,VALID,24.0253,VALID,199,VALID,0,
2009-12-26, 02:45:04,VALID,1007.36,VALID,0,VALID,43.3067,VALID,0,VALID,24.0253,VALID,199,VALID,0,
2009-12-26, 02:46:04,VALID,1007.36,VALID,0,VALID,43.299,VALID,0,VALID,24.0253,VALID,199,VALID,0,
2009-12-26, 02:47:04,VALID,1007.35,VALID,0,VALID,43.299,VALID,0,VALID,24.004,VALID,199,VALID,0,
2009-12-26, 02:48:04,VALID,1007.35,VALID,0,VALID,43.3295,VALID,0,VALID,24.0253,VALID,199,VALID,0,
2009-12-26, 02:49:04,VALID,1007.34,VALID,0,VALID,43.3295,VALID,0,VALID,24.0253,VALID,199,VALID,0,
2009-12-26, 02:50:04,VALID,1007.31,VALID,0,VALID,43.3143,VALID,0,VALID,24.0058,VALID,199,VALID,0,
2009-12-26, 02:51:04,VALID,1007.3,VALID,0,VALID,43.3372,VALID,0,VALID,24.0253,VALID,199,VALID,0,
2009-12-26, 02:52:04,VALID,1007.31,VALID,0,VALID,43.3143,VALID,0,VALID,24.0253,VALID,199,VALID,0,
2009-12-26, 02:53:04,VALID,1007.29,VALID,0,VALID,43.3372,VALID,0.105969,VALID,24.0253,VALID,199,VALID,0,
2009-12-26, 02:54:04,VALID,1007.28,VALID,0,VALID,43.3295,VALID,0,VALID,24.004,VALID,199,VALID,0,
2009-12-26, 02:55:04,VALID,1007.26,VALID,0,VALID,43.3295,VALID,0.105969,VALID,24.004,VALID,199,VALID,0,
2009-12-26, 02:56:04,VALID,1007.3,VALID,0,VALID,43.3219,VALID,0,VALID,24.0253,VALID,199,VALID,0,
2009-12-26, 02:57:04,VALID,1007.3,VALID,0,VALID,43.3219,VALID,0.105969,VALID,24.0253,VALID,199,VALID,0,
2009-12-26, 02:58:04,VALID,1007.31,VALID,0,VALID,43.3219,VALID,0,VALID,24.0253,VALID,199,VALID,0,
2009-12-26, 02:59:04,VALID,1007.27,VALID,0,VALID,43.3448,VALID,0.105969,VALID,24.004,VALID,199,VALID,0,
2009-12-26, 03:00:04,VALID,1007.28,VALID,0,VALID,43.3753,VALID,0.105969,VALID,24.0058,VALID,199,VALID,0,
2009-12-26, 03:01:04,VALID,1007.28,VALID,0,VALID,43.3905,VALID,0.105969,VALID,23.9863,VALID,199,VALID,0,
2009-12-26, 03:02:04,VALID,1007.27,VALID,0,VALID,43.3982,VALID,0,VALID,23.965,VALID,199,VALID,0,
2009-12-26, 03:03:04,VALID,1007.29,VALID,0,VALID,43.4058,VALID,0,VALID,23.9668,VALID,199,VALID,0,
2009-12-26, 03:04:04,VALID,1007.28,VALID,0,VALID,43.4439,VALID,0.105969,VALID,23.9668,VALID,199,VALID,0,
2009-12-26, 03:05:04,VALID,1007.3,VALID,0,VALID,43.421,VALID,0.105969,VALID,23.9473,VALID,199,VALID,0,
2009-12-26, 03:06:04,VALID,1007.27,VALID,0,VALID,43.421,VALID,0,VALID,23.9473,VALID,199,VALID,0,
2009-12-26, 03:07:04,VALID,1007.28,VALID,0,VALID,43.4363,VALID,0.105969,VALID,23.926,VALID,199,VALID,0,
2009-12-26, 03:08:04,VALID,1007.26,VALID,0,VALID,43.4744,VALID,0.105969,VALID,23.9668,VALID,108,VALID,0,
2009-12-26, 03:09:04,VALID,1007.27,VALID,0,VALID,43.4592,VALID,0.105969,VALID,23.9473,VALID,105,VALID,0,
2009-12-26, 03:10:04,VALID,1007.27,VALID,0,VALID,43.4439,VALID,0.105969,VALID,23.9455,VALID,78,VALID,0,
2009-12-26, 03:11:04,VALID,1007.29,VALID,0,VALID,43.4363,VALID,0.105969,VALID,23.9455,VALID,78,VALID,0,
2009-12-26, 03:12:04,VALID,1007.29,VALID,0,VALID,43.4439,VALID,0.105969,VALID,23.9668,VALID,93,VALID,0,
2009-12-26, 03:13:04,VALID,1007.32,VALID,0,VALID,43.421,VALID,0.105969,VALID,23.965,VALID,92,VALID,0,
2009-12-26, 03:14:04,VALID,1007.29,VALID,0,VALID,43.4287,VALID,0.105969,VALID,23.965,VALID,92,VALID,0,
2009-12-26, 03:15:04,VALID,1007.32,VALID,0,VALID,43.421,VALID,0.105969,VALID,23.9863,VALID,98,VALID,0,
2009-12-26, 03:16:04,VALID,1007.32,VALID,0,VALID,43.4058,VALID,0.105969,VALID,23.9863,VALID,105,VALID,0,
2009-12-26, 03:17:04,VALID,1007.33,VALID,0,VALID,43.4363,VALID,0.105969,VALID,24.0058,VALID,123,VALID,0,
2009-12-26, 03:18:04,VALID,1007.36,VALID,0,VALID,43.4592,VALID,0.105969,VALID,23.965,VALID,127,VALID,0,
2009-12-26, 03:19:04,VALID,1007.35,VALID,0,VALID,43.482,VALID,0.105969,VALID,23.9668,VALID,136,VALID,0,
2009-12-26, 03:20:04,VALID,1007.37,VALID,0,VALID,43.4973,VALID,0.105969,VALID,23.9455,VALID,155,VALID,0.535937,
2009-12-26, 03:21:04,VALID,1007.38,VALID,0,VALID,43.5126,VALID,0.105969,VALID,23.9455,VALID,149,VALID,0.624609,
2009-12-26, 03:22:04,VALID,1007.38,VALID,0,VALID,43.5507,VALID,0,VALID,23.9473,VALID,148,VALID,0.6125,
2009-12-26, 03:23:04,VALID,1007.41,VALID,0,VALID,43.5507,VALID,0.105969,VALID,23.9065,VALID,148,VALID,0.209375,
2009-12-26, 03:24:04,VALID,1007.45,VALID,0,VALID,43.5507,VALID,0.105969,VALID,23.9065,VALID,139,VALID,0.158594,
2009-12-26, 03:25:04,VALID,1007.48,VALID,0,VALID,43.5888,VALID,0.105969,VALID,23.9084,VALID,139,VALID,0,
2009-12-26, 03:26:04,VALID,1007.5,VALID,0,VALID,43.6041,VALID,0,VALID,23.8871,VALID,139,VALID,0,
2009-12-26, 03:27:04,VALID,1007.48,VALID,0,VALID,43.5812,VALID,0,VALID,23.8676,VALID,139,VALID,0,
2009-12-26, 03:28:04,VALID,1007.51,VALID,0,VALID,43.5888,VALID,0.105969,VALID,23.8889,VALID,118,VALID,0.640234,
2009-12-26, 03:29:04,VALID,1007.48,VALID,0,VALID,43.5964,VALID,0.105969,VALID,23.8889,VALID,118,VALID,0.341797,
2009-12-26, 03:30:04,VALID,1007.51,VALID,0,VALID,43.5888,VALID,0,VALID,23.8889,VALID,117,VALID,0.623438,
2009-12-26, 03:31:04,VALID,1007.5,VALID,0,VALID,43.6117,VALID,0.105969,VALID,23.8871,VALID,123,VALID,0.967969,
2009-12-26, 03:32:04,VALID,1007.53,VALID,0,VALID,43.5812,VALID,0.105969,VALID,23.9084,VALID,124,VALID,0.823828,
2009-12-26, 03:33:04,VALID,1007.53,VALID,0,VALID,43.5888,VALID,0.105969,VALID,23.8871,VALID,112,VALID,0.680078,
2009-12-26, 03:34:04,VALID,1007.53,VALID,0,VALID,43.5888,VALID,0.105969,VALID,23.9065,VALID,104,VALID,0.701172,
2009-12-26, 03:35:04,VALID,1007.57,VALID,0,VALID,43.5812,VALID,0.105969,VALID,23.9278,VALID,115,VALID,0.241016,
2009-12-26, 03:36:04,VALID,1007.57,VALID,0,VALID,43.5583,VALID,0.105969,VALID,23.9065,VALID,112,VALID,0.767187,
2009-12-26, 03:37:04,VALID,1007.58,VALID,0,VALID,43.5431,VALID,0.105969,VALID,23.926,VALID,111,VALID,1.01289,
2009-12-26, 03:38:04,VALID,1007.55,VALID,0,VALID,43.5431,VALID,0.105969,VALID,23.926,VALID,103,VALID,0.915234,
2009-12-26, 03:39:04,VALID,1007.57,VALID,0,VALID,43.5736,VALID,0.105969,VALID,23.926,VALID,125,VALID,0.376953,
2009-12-26, 03:40:04,VALID,1007.57,VALID,0,VALID,43.5354,VALID,0,VALID,23.9455,VALID,115,VALID,0.917969,
2009-12-26, 03:41:04,VALID,1007.55,VALID,0,VALID,43.5354,VALID,0.105969,VALID,23.9668,VALID,121,VALID,0.913672,
2009-12-26, 03:42:04,VALID,1007.57,VALID,0,VALID,43.5583,VALID,0.105969,VALID,23.9455,VALID,117,VALID,0.758594,
2009-12-26, 03:43:04,VALID,1007.51,VALID,0,VALID,43.5964,VALID,0.105969,VALID,23.926,VALID,117,VALID,0.755469,
2009-12-26, 03:44:04,VALID,1007.52,VALID,0,VALID,43.6041,VALID,0.105969,VALID,23.9278,VALID,130,VALID,0.952734,
2009-12-26, 03:45:04,VALID,1007.53,VALID,0,VALID,43.6117,VALID,0,VALID,23.9278,VALID,127,VALID,1.03633,
2009-12-26, 03:46:04,VALID,1007.53,VALID,0,VALID,43.6117,VALID,0.105969,VALID,23.8871,VALID,125,VALID,1.10352,
2009-12-26, 03:47:04,VALID,1007.55,VALID,0,VALID,43.6269,VALID,0,VALID,23.8871,VALID,169,VALID,0.721875,
2009-12-26, 03:48:04,VALID,1007.51,VALID,0,VALID,43.6422,VALID,0.105969,VALID,23.9084,VALID,128,VALID,1.0793,
2009-12-26, 03:49:04,VALID,1007.52,VALID,0,VALID,43.6346,VALID,0.105969,VALID,23.9084,VALID,149,VALID,0.856641,